Location: Unspecified
(0.0000°N, 0.0000°E)
Time: 10:00:33
(UTC+02:00)

NOAA 12 - Visible Passes

Search period start: 22 October 2014 00:00
Search period end: 31 October 2014 23:00
Orbit: 797 x 815 km, 98.7° (Epoch: 21 October)

Date Brightness Start Highest point End Pass type
(mag) Time Alt. Az. Time Alt. Az. Time Alt. Az.
22 Oct 4.1 20:57:06 10° SSE 21:02:17 55° ENE 21:07:28 10° N visible
23 Oct 4.9 20:33:03 10° SE 20:37:32 28° ENE 20:41:59 10° NNE visible
23 Oct 6.6 22:13:26 10° SSW 22:17:02 19° WSW 22:20:39 10° WNW visible
24 Oct 5.6 20:10:06 10° ESE 20:12:47 14° ENE 20:15:27 10° NE visible
24 Oct 5.5 21:47:27 10° SSW 21:52:17 37° WSW 21:57:08 10° NW visible
25 Oct 4.2 21:22:14 10° S 21:27:32 74° WSW 21:32:49 10° NNW visible
26 Oct 4.1 19:57:34 10° SSE 20:02:46 56° ENE 20:07:57 10° N visible
27 Oct 4.9 19:33:30 10° SE 19:38:00 28° ENE 19:42:29 10° NNE visible
27 Oct 6.6 21:13:55 10° SW 21:17:30 19° WSW 21:21:06 10° WNW visible
28 Oct 5.6 19:10:31 10° ESE 19:13:15 14° ENE 19:15:59 10° NE visible
28 Oct 5.5 20:47:56 10° SSW 20:52:46 36° WSW 20:57:36 10° NW visible
29 Oct 4.3 20:22:42 10° S 20:28:00 73° WSW 20:33:17 10° NNW visible
30 Oct 4.1 19:58:01 10° SSE 20:03:14 57° ENE 20:08:25 10° N visible
31 Oct 4.9 19:33:57 10° SE 19:38:28 29° ENE 19:42:59 10° NNE visible
31 Oct 6.6 21:14:25 10° SW 21:17:59 18° WSW 21:21:32 10° WNW visible
